Location: *
(35.8942°N, 23.3025°E)
Time: 23:46:57
(UTC+00:00)

Cosmos 2333 Rocket - Pass Details

Date: 21 September 2021
Orbit: 839 x 863 km, 70.8° (Epoch: 22 October)

Event Time Altitude Azimuth Distance (km) Brightness Sun altitude
Exits shadow 01:25:50 22° 353° (N) 1,747 4.0 -33.4°
Drops below altitude 10° 01:28:04 10° 7° (N) 2,465 5.0 -33.0°
Sets 01:30:41 0° 14° (NNE) 3,407 5.9 -32.6°
